When you browse on this site, cookies collect data to enhance your experience and personalize the content and advertising you see.
Visit our Privacy Policy to learn more. By continuing to use the site, you agree to this use of cookies and data.
  • In United Kingdom
  • List of Countries
  • For 7 days
  • Water Temperature
  • Weather Map
  • Weather Widgets
  • user-avatar
    Login

    Hourly Weather Tata

    Today, 22 February, Saturday

    Time Temperature Precipitation Wind Pressure Humidity
    00:00 +1°C° 0 mm 3 mps 760 mmHg 77%
    01:00 +1°C° 0 mm 3 mps 760 mmHg 76%
    02:00 +2°C° 0 mm 2 mps 760 mmHg 77%
    03:00 +1°C° 0 mm 2 mps 760 mmHg 78%
    04:00 +2°C° 0 mm 1 mps 760 mmHg 79%
    05:00 +2°C° 0 mm 1 mps 761 mmHg 79%
    06:00 +1°C° 0 mm 2 mps 761 mmHg 79%
    07:00 +1°C° 0 mm 2 mps 761 mmHg 78%
    08:00 +3°C° 0 mm 2 mps 761 mmHg 72%
    09:00 +4°C° 0 mm 2 mps 761 mmHg 67%
    10:00 +6°C° 0 mm 2 mps 761 mmHg 61%
    11:00 +7°C° 0 mm 3 mps 761 mmHg 58%
    12:00 +7°C° 0 mm 4 mps 760 mmHg 55%
    13:00 +8°C° 0 mm 5 mps 760 mmHg 52%
    14:00 +8°C° 0 mm 4 mps 760 mmHg 53%
    15:00 +8°C° 0 mm 4 mps 759 mmHg 54%
    16:00 +7°C° 0 mm 4 mps 758 mmHg 55%
    17:00 +7°C° 0 mm 4 mps 758 mmHg 59%
    18:00 +6°C° 0 mm 4 mps 758 mmHg 62%
    19:00 +5°C° 0 mm 3 mps 758 mmHg 66%
    20:00 +5°C° 0 mm 3 mps 758 mmHg 67%
    21:00 +4°C° 0 mm 3 mps 757 mmHg 67%
    22:00 +4°C° 0 mm 3 mps 757 mmHg 68%
    23:00 +4°C° 0 mm 3 mps 757 mmHg 69%

    Tomorrow, 23 February, Sunday

    Time Temperature Precipitation Wind Pressure Humidity
    00:00 +4°C° 0 mm 3 mps 757 mmHg 69%
    01:00 +5°C° 0 mm 2 mps 757 mmHg 70%
    02:00 +4°C° 0.1 mm 3 mps 756 mmHg 70%
    03:00 +5°C° 0.1 mm 3 mps 756 mmHg 70%
    04:00 +5°C° 0.1 mm 3 mps 755 mmHg 70%
    05:00 +6°C° 0 mm 4 mps 756 mmHg 70%
    06:00 +7°C° 0 mm 5 mps 756 mmHg 70%
    07:00 +8°C° 0 mm 6 mps 756 mmHg 70%
    08:00 +9°C° 0 mm 6 mps 755 mmHg 68%
    09:00 +9°C° 0 mm 7 mps 755 mmHg 66%
    10:00 +10°C° 0 mm 7 mps 755 mmHg 64%
    11:00 +10°C° 0 mm 7 mps 754 mmHg 63%
    12:00 +10°C° 0 mm 6 mps 754 mmHg 62%
    13:00 +11°C° 0 mm 6 mps 753 mmHg 62%
    14:00 +10°C° 0.2 mm 5 mps 752 mmHg 66%
    15:00 +9°C° 0.2 mm 5 mps 751 mmHg 71%
    16:00 +8°C° 0.2 mm 4 mps 750 mmHg 75%
    17:00 +8°C° 0.1 mm 4 mps 750 mmHg 74%
    18:00 +8°C° 0.1 mm 4 mps 749 mmHg 74%
    19:00 +8°C° 0.1 mm 5 mps 749 mmHg 73%
    20:00 +8°C° 0 mm 5 mps 748 mmHg 70%
    21:00 +9°C° 0 mm 6 mps 747 mmHg 68%
    22:00 +10°C° 0 mm 7 mps 746 mmHg 66%
    23:00 +10°C° 0.1 mm 7 mps 747 mmHg 65%

    Day after tomorrow, 24 February, Monday

    Time Temperature Precipitation Wind Pressure Humidity
    00:00 +10°C° 0.1 mm 8 mps 747 mmHg 65%
    01:00 +10°C° 0.1 mm 9 mps 747 mmHg 65%
    02:00 +8°C° 0.4 mm 9 mps 748 mmHg 62%
    03:00 +7°C° 0.4 mm 9 mps 749 mmHg 58%
    04:00 +6°C° 0.4 mm 10 mps 750 mmHg 55%
    05:00 +5°C° 0 mm 9 mps 751 mmHg 59%
    06:00 +4°C° 0 mm 8 mps 753 mmHg 63%
    07:00 +3°C° 0 mm 7 mps 754 mmHg 67%
    08:00 +3°C° 0 mm 7 mps 755 mmHg 61%
    09:00 +4°C° 0 mm 7 mps 755 mmHg 56%
    10:00 +4°C° 0 mm 7 mps 756 mmHg 50%
    11:00 +5°C° 0 mm 6 mps 756 mmHg 49%
    12:00 +7°C° 0 mm 6 mps 756 mmHg 48%
    13:00 +7°C° 0 mm 5 mps 756 mmHg 47%
    14:00 +7°C° 0 mm 4 mps 756 mmHg 47%
    15:00 +8°C° 0 mm 3 mps 755 mmHg 46%
    16:00 +8°C° 0 mm 3 mps 755 mmHg 46%
    17:00 +8°C° 0 mm 3 mps 754 mmHg 49%
    18:00 +7°C° 0 mm 2 mps 754 mmHg 53%
    19:00 +6°C° 0 mm 2 mps 754 mmHg 57%
    20:00 +5°C° 0 mm 3 mps 753 mmHg 59%
    21:00 +4°C° 0 mm 3 mps 753 mmHg 61%
    22:00 +4°C° 0 mm 3 mps 753 mmHg 62%
    23:00 +4°C° 0 mm 4 mps 752 mmHg 61%

    25 February, Tuesday

    Time Temperature Precipitation Wind Pressure Humidity
    00:00 +5°C° 0 mm 4 mps 752 mmHg 59%
    01:00 +5°C° 0 mm 4 mps 751 mmHg 57%
    02:00 +4°C° 0 mm 4 mps 751 mmHg 59%
    03:00 +4°C° 0 mm 3 mps 750 mmHg 60%
    04:00 +3°C° 0 mm 3 mps 749 mmHg 62%
    05:00 +3°C° 0 mm 3 mps 749 mmHg 64%
    06:00 +3°C° 0 mm 3 mps 749 mmHg 66%
    07:00 +3°C° 0 mm 2 mps 749 mmHg 69%
    08:00 +5°C° 0 mm 2 mps 748 mmHg 67%
    09:00 +7°C° 0 mm 2 mps 748 mmHg 66%
    10:00 +9°C° 0 mm 2 mps 747 mmHg 64%
    11:00 +10°C° 0 mm 3 mps 747 mmHg 62%
    12:00 +12°C° 0 mm 3 mps 746 mmHg 61%
    13:00 +13°C° 0 mm 3 mps 745 mmHg 59%
    14:00 +13°C° 0 mm 3 mps 744 mmHg 62%
    15:00 +13°C° 0 mm 3 mps 744 mmHg 65%
    16:00 +12°C° 0 mm 3 mps 743 mmHg 68%
    17:00 +11°C° 0.1 mm 3 mps 743 mmHg 73%
    18:00 +10°C° 0.1 mm 2 mps 742 mmHg 79%
    19:00 +9°C° 0.1 mm 2 mps 742 mmHg 85%
    20:00 +9°C° 0 mm 2 mps 742 mmHg 86%
    21:00 +9°C° 0 mm 2 mps 741 mmHg 87%
    22:00 +9°C° 0 mm 2 mps 741 mmHg 87%
    23:00 +9°C° 0 mm 2 mps 740 mmHg 85%

    26 February, Wednesday

    Time Temperature Precipitation Wind Pressure Humidity
    00:00 +9°C° 0 mm 2 mps 740 mmHg 82%
    01:00 +9°C° 0 mm 3 mps 740 mmHg 80%
    02:00 +8°C° 0.2 mm 3 mps 739 mmHg 82%
    03:00 +8°C° 0.2 mm 3 mps 739 mmHg 85%
    04:00 +7°C° 0.2 mm 3 mps 738 mmHg 87%
    05:00 +7°C° 0 mm 3 mps 738 mmHg 84%
    06:00 +7°C° 0 mm 2 mps 738 mmHg 82%
    07:00 +6°C° 0 mm 2 mps 738 mmHg 79%
    08:00 +7°C° 0 mm 3 mps 738 mmHg 74%
    09:00 +6°C° 0 mm 4 mps 737 mmHg 70%
    10:00 +7°C° 0 mm 5 mps 737 mmHg 65%
    11:00 +7°C° 0 mm 5 mps 737 mmHg 61%
    12:00 +8°C° 0 mm 5 mps 737 mmHg 57%
    13:00 +8°C° 0 mm 6 mps 736 mmHg 53%
    14:00 +8°C° 0 mm 6 mps 736 mmHg 53%
    15:00 +6°C° 0 mm 7 mps 736 mmHg 53%
    16:00 +6°C° 0 mm 8 mps 736 mmHg 53%
    17:00 +5°C° 0 mm 7 mps 736 mmHg 53%
    18:00 +4°C° 0 mm 6 mps 736 mmHg 54%
    19:00 +3°C° 0 mm 5 mps 736 mmHg 54%
    20:00 +3°C° 0 mm 6 mps 737 mmHg 55%
    21:00 +3°C° 0 mm 6 mps 737 mmHg 56%
    22:00 +2°C° 0 mm 6 mps 738 mmHg 57%
    23:00 +2°C° 0 mm 7 mps 738 mmHg 61%

    27 February, Thursday

    Time Temperature Precipitation Wind Pressure Humidity
    00:00 +2°C° 0 mm 7 mps 738 mmHg 65%
    01:00 0°C° 0 mm 8 mps 739 mmHg 69%
    02:00 0°C° 0 mm 8 mps 739 mmHg 70%
    03:00 0°C° 0 mm 8 mps 740 mmHg 71%
    04:00 0°C° 0 mm 9 mps 740 mmHg 72%
    05:00 0°C° 0 mm 9 mps 741 mmHg 72%
    06:00 0°C° 0 mm 9 mps 742 mmHg 71%
    07:00 -1°C° 0 mm 9 mps 743 mmHg 71%
    08:00 0°C° 0 mm 9 mps 743 mmHg 66%
    09:00 +1°C° 0 mm 10 mps 744 mmHg 62%
    10:00 +2°C° 0 mm 11 mps 745 mmHg 57%
    11:00 +2°C° 0 mm 11 mps 745 mmHg 54%
    12:00 +3°C° 0 mm 10 mps 746 mmHg 52%
    13:00 +5°C° 0 mm 10 mps 746 mmHg 49%
    14:00 +5°C° 0 mm 10 mps 746 mmHg 49%
    15:00 +5°C° 0 mm 9 mps 746 mmHg 48%
    16:00 +5°C° 0 mm 8 mps 746 mmHg 48%
    17:00 +4°C° 0 mm 7 mps 747 mmHg 52%
    18:00 +3°C° 0 mm 6 mps 747 mmHg 57%
    19:00 +3°C° 0 mm 4 mps 748 mmHg 61%
    20:00 +1°C° 0 mm 4 mps 748 mmHg 63%
    21:00 +2°C° 0 mm 3 mps 748 mmHg 66%
    22:00 +2°C° 0 mm 2 mps 749 mmHg 68%
    23:00 +2°C° 0 mm 2 mps 749 mmHg 69%
    Show more